User: anonymous   Login
Location: Stonelick Lake State Park
(39.2170°N, 84.0850°W)
Time: 23:34:51
(UTC-05:00)
Language:

Abrixas rocket - Orbit

View from above orbital plane
View from above orbital plane
View from above satellite
View from above satellite

Ground track
Ground track

The orbit data is extracted from the following two-line orbital elements,

1 25723U 99022C   17054.70109218  .00008804  00000-0  14794-3 0  9994
2 25723  48.4170  51.8033 0010443 212.3356 147.6949 15.52421999988854
Epoch (UTC): 23 February 2017 16:49:34
Eccentricity: 0.0010443
inclination: 48.4170°
perigee height: 402 km
apogee height: 417 km
right ascension of ascending node: 51.8033°
argument of perigee: 212.3356°
revolutions per day: 15.52421999
mean anomaly at epoch: 147.6949°
orbit number at epoch: 98885

The dashed part of the orbit path shows where the satellite is in the earth's shadow,  

DLR